Flag for U.S.A. Weather past 2 weeks in Wright, Florida, U.S.A.

Now
69 °F

Clear.


Feels Like: 69 °F
Forecast: 56 / 80 °F
Wind: No wind

Location: Hurlburt Field

Current Time: Oct 25, 2014 at 7:25:45 PM

Latest Report: Oct 25, 2014 at 6:58 PM


Visibility: 10 mi

Pressure: 30.03 "Hg

Humidity: 46%

Dew point: 47 °F

Location of WrightLocation

Historic Weather in Wright — Graph

°F

Wright temperature yesterday

Maximum temperature yesterday: 76 °F (at 4:58 PM)
Minimum temperature yesterday: 51 °F (at 6:58 AM)
Average temperature yesterday: 62 °F

Past Weeks' High & Low Weather Summary

 TemperatureHumidityPressure
High85 °F (Oct 13, 1:58 PM)89% (Oct 14, 4:04 AM)30.11 "Hg (Oct 14, 4:04 AM)
Low46 °F (Oct 23, 6:58 AM)22% (Oct 15, 2:58 PM)29.78 "Hg (Oct 14, 4:59 AM)
Average68 °F62%29.99 "Hg
* Reported Oct 10 5:58 PM — Oct 25 5:58 PM, Wright, Weather by CustomWeather, © 2014

Note: Actual official high and low records may vary slightly from our data, if they occured in-between our weather recording intervals... More about our weather records

Advertising

Wright weather history for previous 24 hours

 ConditionsComfort  
Time TempWeatherWind HumidityBarometerVisibility
5:58 PM
Oct 25
71 °FSunny.7 mph43%30.03 "Hg10 mi
4:58 PM77 °FSunny.13 mph30%30.01 "Hg10 mi
3:58 PM78 °FSunny.10 mph29%30.01 "Hg10 mi
2:58 PM79 °FSunny.16 mph30%30.01 "Hg10 mi
1:58 PM78 °FSunny.15 mph27%30.02 "Hg10 mi
12:58 PM76 °FSunny.15 mph29%30.04 "Hg10 mi
11:58 AM75 °FSunny.18 mph28%30.07 "Hg10 mi
10:58 AM73 °FSunny.15 mph32%30.09 "Hg10 mi
9:58 AM69 °FSunny.13 mph36%30.09 "Hg10 mi
8:58 AM61 °FSunny.12 mph49%30.09 "Hg10 mi
7:58 AM53 °FSunny.7 mph69%30.09 "Hg10 mi
6:58 AM48 °FSunny.10 mph77%30.06 "Hg10 mi
5:58 AM49 °FClear.9 mph74%30.04 "Hg10 mi
4:58 AM49 °FClear.9 mph75%30.03 "Hg10 mi
3:58 AM49 °FClear.9 mph75%30.02 "Hg10 mi
2:58 AM50 °FClear.7 mph74%30.03 "Hg10 mi
1:58 AM50 °FClear.7 mph78%30.03 "Hg10 mi
12:58 AM52 °FClear.7 mph71%30.03 "Hg10 mi
11:58 PM
Oct 24
53 °FClear.6 mph70%30.04 "Hg10 mi
10:58 PM53 °FClear.6 mph73%30.04 "Hg9 mi
9:58 PM54 °FClear.6 mph78%30.04 "Hg10 mi
8:58 PM56 °FClear.5 mph77%30.03 "Hg10 mi
7:58 PM60 °FClear.No wind67%30.01 "Hg10 mi
Weather by CustomWeather, © 2014

See weather overviewHow to use our weather pages